sat.trackr.live / text

‹ back to catalog

STARLINK-30201

NORAD 57301 · 2023-096M

PAYLOAD ACTIVE UNKNOWN

§ Identity

Operator
Country
US
Launch date
2023-07-10
Launch site
AFETR
Launch vehicle
Mass (kg)
RCS (m²)

Purposes: comms

External: N2YO · Heavens-Above · Gunter

§ Orbital elements

Epoch: 2026-05-24T17:21:58.405824Z

Period
94.27 min
Inclination
43.0013°
Eccentricity
0.0001238
Mean motion
15.27576659 rev/d
Perigee alt
482.2 km
Apogee alt
483.9 km
Semi-major
6,861.2 km
B*
3.9449e-5
RAAN
153.9569°
Arg perigee
279.5223°
Mean anomaly
80.5489°
Rev number
15,834

§ Raw data

STARLINK-302011 57301U 23096M   26144.72359266  .00000824  00000+0  39449-4 0  99992 57301  43.0013 153.9569 0001238 279.5223  80.5489 15.27576659158349

JSON: /api/v1/satellites/57301 · /tle

For live sub-satellite position, see the globe view (requires WebGL).

§ Visibility from observer

Set your observer location to see the next 7 days of passes ≥ 10°. The values pass through the URL so the page stays shareable.

No JS? Fill the form by hand. The geolocation button needs JavaScript.